सभी
Nangis-Les Loges Airport LFAI मौसम
There is no TAF data available at LFAI or any nearby airports.
There is no METAR data available at LFAI. Showing METAR data for LFPM (15 mi W).
Recent LFPM METAR history (no data for LFAI)
| Date | Time (CEST) | Flight Rules | Wind Dir. | Speed | Type | Height AGL (ft) | Visibility | Temp (°C) | Temp (°F) | Dew Point (°C) | Dew Point (°F) | Rel. Humid. | Pressure | Density Altitude | Remarks |
|---|---|---|---|---|---|---|---|---|---|---|---|---|---|---|---|
| 04-मई | 04:00 | VFR | 110° | 3 kt | 10000 meters | 12° | 53° | 12° | 53° | 100% | 1012 mb | -22 ft | |||
| 04-मई | 03:30 | VFR | Variable | 2 kt | 10000 meters | 12° | 53° | 12° | 53° | 100% | 1012 mb | -22 ft | |||
| 04-मई | 03:00 | VFR | Calm | 10000 meters | 12° | 53° | 12° | 53° | 100% | 1012 mb | -22 ft | ||||
| 04-मई | 02:30 | VFR | Calm | 10000 meters | 12° | 53° | 12° | 53° | 100% | 1012 mb | -22 ft | ||||
| 04-मई | 02:00 | VFR | Variable | 3 kt | 10000 meters | 13° | 55° | 13° | 55° | 100% | 1012 mb | 98 ft | |||
| 04-मई | 01:30 | VFR | 190° | 3 kt | 10000 meters | 12° | 53° | 12° | 53° | 100% | 1012 mb | -22 ft | |||
| 04-मई | 01:00 | VFR | 180° | 3 kt | 10000 meters | 12° | 53° | 12° | 53° | 100% | 1012 mb | -22 ft | |||
| 04-मई | 00:30 | VFR | 160° | 4 kt | 10000 meters | 13° | 55° | 13° | 55° | 100% | 1012 mb | 98 ft | |||
| 04-मई | 00:00 | VFR | 170° | 4 kt | 10000 meters | 13° | 55° | 13° | 55° | 100% | 1012 mb | 98 ft | |||
| 03-मई | 23:30 | VFR | 180° | 4 kt | 10000 meters | 13° | 55° | 13° | 55° | 100% | 1012 mb | 98 ft | |||
| 03-मई | 23:00 | VFR | 160° | 5 kt | 10000 meters | 13° | 55° | 13° | 55° | 100% | 1012 mb | 98 ft | |||
| 03-मई | 22:30 | VFR | 170° | 6 kt | 10000 meters | 13° | 55° | 13° | 55° | 100% | 1012 mb | 98 ft | |||
| 03-मई | 22:00 | VFR | 180° | 6 kt | 10000 meters | 14° | 57° | 13° | 55° | 94% | 1012 mb | 218 ft | |||
| 03-मई | 21:30 | VFR | 160° | 5 kt | 10000 meters | 14° | 57° | 13° | 55° | 94% | 1011 mb | 247 ft | |||
| 03-मई | 21:00 | VFR | 160° | 7 kt | 10000 meters | 15° | 59° | 14° | 57° | 94% | 1011 mb | 367 ft | |||
| 03-मई | 20:30 | VFR | 170° | 7 kt | 10000 meters | 16° | 60° | 15° | 59° | 94% | 1011 mb | 487 ft | |||
| 03-मई | 20:00 | VFR | 150° | 7 kt | 10000 meters | 17° | 62° | 15° | 59° | 88% | 1011 mb | 607 ft | |||
| 03-मई | 19:30 | VFR | 170° | 7 kt | 10000 meters | 18° | 64° | 14° | 57° | 77% | 1010 mb | 757 ft | |||
| 03-मई | 19:00 | VFR | 170° | 8 kt | 10000 meters | 18° | 64° | 15° | 59° | 83% | 1011 mb | 727 ft | |||
| 03-मई | 18:30 | VFR | 190° | 5 kt | 10000 meters | 19° | 66° | 16° | 60° | 83% | 1010 mb | 877 ft | |||
| 03-मई | 18:00 | VFR | 220° | 6 kt | 10000 meters | 18° | 64° | 15° | 59° | 83% | 1011 mb | 727 ft | |||
| 03-मई | 17:30 | VFR | 210° | 7 kt | 10000 meters | 18° | 64° | 16° | 60° | 88% | 1011 mb | 727 ft | |||
| 03-मई | 17:00 | VFR | 230° | 5 kt | 10000 meters | 18° | 64° | 16° | 60° | 88% | 1011 mb | 727 ft | |||
| 03-मई | 16:30 | VFR | 250° | 5 kt | 10000 meters | 17° | 62° | 16° | 60° | 94% | 1011 mb | 607 ft |
लॉगिन
| Your browser is unsupported. अपना ब्राऊजर अपग्रेड करें |
